NOSS 3-3 (C) - Orbit

View from above orbital plane
View from above orbital plane
View from above satellite
View from above satellite

Ground track
Ground track

The orbit data is extracted from the following two-line orbital elements,

1 28541U 05004C   13162.71801796 0.00000000  00000-0  00000-0 0    04
2 28541  63.4349 323.4327 0138000 359.9147   0.0853 13.40625781    08
Epoch (UTC): 11 June 2013 17:13:56
Eccentricity: 0.0138000
inclination: 63.4349°
perigee height: 1003 km
apogee height: 1210 km
right ascension of ascending node: 323.4327°
argument of perigee: 359.9147°
revolutions per day: 13.40625781
mean anomaly at epoch: 0.0853°
orbit number at epoch: 0

The dashed part of the orbit path shows where the satellite is in the earth's shadow,  

Developed and maintained by Chris Peat, Heavens-Above GmbH. Please read the updated FAQ before sending e-mail. Imprint. DLR